[[{"header":{"parameterUnit":"m.s-1","parameterCategory":1,"la1":30.2991,"la2":30.254,"lo1":-89.0895,"lo2":-89.0444,"dy":0.0017,"dx":0.0017,"nx":28,"ny":28,"refTime":"2024-08-11T09:00:00:Z","depth":0,"parameterNumber":2,"parameterNumberName":"U-component_of_WINDS"},"data":[0,0,0,0,0,0,0,0,0,0,0,0,0,0,0,0,0,0,0,0,0,0,0,0,0,0,0,0,0,0,0,0,0,0,0,0,0,0,0,0,0,0,0,0,0,0,0,0,0,0,0,0,0,0,0,0,0,0,1.9642,1.9644,0,1.9832,1.9834,1.9836,1.9896,1.9895,1.9894,1.9894,2.0089,2.0095,2.0101,0,0,0,0,0,0,0,0,0,0,0,0,0,1.9331,1.9336,1.9642,1.9645,1.9647,1.9832,1.9834,1.9837,1.9896,1.9895,1.9894,1.9893,2.0087,2.0094,2.0101,0,0,0,0,0,0,0,0,0,0,0,0,0,1.9488,1.9338,1.9642,1.9699,1.9706,1.9831,1.9834,1.9838,1.9897,1.9895,1.9894,1.9893,2.0085,2.0093,2.0102,2.0185,0,0,2.013,2.0134,0,0,0,0,0,0,0,0,1.9479,1.9499,1.9688,1.9695,1.9703,1.9839,1.9796,1.9954,1.9897,1.9824,1.9894,1.9892,2.0007,2.0022,2.0061,2.0194,2.0202,2.0131,2.0136,2.014,2.0143,0,0,0,0,0,0,0,1.9468,1.9491,1.9717,1.9691,1.97,1.9715,1.9736,1.9826,1.9921,1.983,1.9835,1.9857,2.0011,2.0052,2.0066,2.0205,2.013,2.0138,2.0144,2.0148,2.0414,2.0416,0,0,0,0,0,0,1.9447,1.9482,1.9711,1.9723,1.9585,1.9721,1.9745,1.9797,1.992,1.9937,1.9858,1.9859,2.0037,2.0055,2.0073,2.0177,2.014,2.0148,2.0154,2.0413,2.0415,2.0416,0,0,0,0,0,0,1.944,1.9467,1.9704,1.9604,1.9635,1.9728,1.9786,1.9801,1.9843,1.9941,1.9958,1.9883,2.0037,2.006,2.0156,2.0185,2.0152,2.0161,2.0411,2.0413,2.0416,2.0387,0,0,0,0,0,0,1.9431,1.9464,1.9497,1.9604,1.964,1.9784,1.9788,1.9806,1.9858,1.9861,1.9968,1.9985,2.0038,2.0142,2.0165,2.0197,2.0168,2.0409,2.0412,2.0415,2.0386,2.0388,2.039,0,0,0,0,0,1.942,1.9482,1.9498,1.9526,1.9683,1.9785,1.9806,1.9865,1.986,1.9893,1.9956,1.9981,2.0178,2.0152,2.0178,2.0213,2.0407,2.0411,2.0415,2.0385,2.0387,2.039,0,0,0,0,0,0,1.9377,1.9497,1.9517,1.9615,1.9689,1.9795,1.984,1.9867,1.9944,1.9944,2.0014,2.0038,2.0129,2.018,2.0149,2.0298,2.0293,2.0302,2.0262,2.0265,2.0267,2.0253,2.0175,0,0,0,0,0,1.9378,1.9451,1.9553,1.963,1.9666,1.9746,1.9793,1.9832,1.9912,1.9944,2.0014,2.009,2.0169,2.022,2.0298,2.0393,2.0417,2.0429,2.0431,2.0433,2.044,2.0493,2.05,2.0429,2.0429,2.0429,0,0,1.9383,1.9458,1.95,1.9623,1.9685,1.9759,1.9772,1.985,1.9906,1.9956,2.0051,2.0104,2.0194,2.029,2.0335,2.0335,2.0465,2.0437,2.0438,2.0445,2.0498,2.0504,2.051,2.0431,2.0431,2.043,0,0,1.9429,1.9493,1.9564,1.9626,1.9719,1.9772,1.9788,1.989,1.9927,2.0023,2.0062,2.0129,2.0263,2.0326,2.0375,2.0443,2.0469,2.0466,2.0478,2.0529,2.0534,2.054,2.0564,2.0571,2.0473,2.0473,2.0473,0,1.9424,1.9537,1.9597,1.9673,1.9726,1.9773,1.9845,1.9902,2.0016,2.0051,2.0049,2.0218,2.0283,2.0393,2.0409,2.0447,2.0469,2.0455,2.0529,2.0535,2.0541,2.0564,2.0573,2.0472,2.0472,2.0472,2.0472,0,1.9525,1.9602,1.9648,1.9757,1.9814,1.9888,1.9959,2.001,2.0043,2.0095,2.0192,2.027,2.0364,2.0393,2.0427,2.0508,2.0505,2.0515,2.0512,2.0545,2.0569,2.0578,2.047,2.0471,2.0471,2.0471,0,0,1.9551,1.969,1.9706,1.9756,1.9861,1.9922,1.9997,2.0089,2.0131,2.0207,2.0272,2.0384,2.0393,2.0449,2.049,2.0534,2.0582,2.0539,2.0542,2.0544,2.0676,2.0668,2.0677,2.0599,2.0601,2.0603,2.0668,0,1.9611,1.9747,1.9803,1.9913,1.9985,2.003,2.0095,2.0166,2.0217,2.0285,2.0341,2.0419,2.0426,2.0459,2.0505,2.0566,2.0609,2.0562,2.066,2.0663,2.0637,2.069,2.0682,2.074,2.0678,2.0679,2.0681,0,1.9701,1.9777,1.9893,1.9989,2.0021,2.0079,2.0167,2.0231,2.0313,2.0346,2.0407,2.0445,2.0525,2.0515,2.0626,2.0592,2.0635,2.0671,2.0675,2.0687,2.0674,2.0704,2.076,2.0769,2.0696,2.0694,2.0693,0,1.9708,1.984,1.9927,1.9967,2.0081,2.012,2.0169,2.025,2.0301,2.0377,2.0411,2.0495,2.0542,2.0606,2.0665,2.0653,2.077,2.0766,2.08,2.0799,2.0824,2.0822,2.0889,2.085,2.085,2.085,2.085,0,1.977,1.984,1.9931,1.9985,2.0064,2.0126,2.0203,2.0255,2.0326,2.039,2.0433,2.0492,2.0567,2.0635,2.0682,2.0766,2.0787,2.0816,2.0828,2.0813,2.0809,2.0843,2.084,2.0853,2.0852,2.0852,2.0851,0,1.9792,1.9857,1.9954,2.0053,2.0079,2.0133,2.0218,2.0271,2.0322,2.0403,2.0425,2.0506,2.0589,2.0654,2.0762,2.0793,2.0882,2.0895,2.0855,2.0861,2.0892,2.0888,2.0983,2.0999,2.0949,2.095,2.095,0,1.9828,1.9883,1.9987,2.0033,2.0081,2.0154,2.0206,2.0269,2.0321,2.0417,2.0459,2.0544,2.0616,2.0746,2.0814,2.0897,2.0912,2.094,2.0925,2.0908,2.0913,2.0909,2.0915,2.0942,2.0942,2.0942,2.0942,0,1.9885,1.9913,1.9986,2.007,2.013,2.0199,2.0269,2.0304,2.0379,2.0436,2.052,2.0576,2.0685,2.077,2.0859,2.0909,2.0939,2.0946,2.0959,2.0944,2.0918,2.0933,2.086,2.0944,2.0944,2.0944,2.0944,2.0944,1.9916,1.9966,2.0046,2.0126,2.0184,2.0248,2.0303,2.036,2.0432,2.0526,2.0558,2.0645,2.0724,2.0847,2.0897,2.0966,2.0968,2.0986,2.0991,2.0995,2.0993,2.0906,2.0983,2.0983,2.0983,2.0983,2.0983,0,1.9974,2.0028,2.01,2.0196,2.0258,2.0279,2.0357,2.0407,2.0483,2.0554,2.0623,2.072,2.0801,2.0875,2.096,2.1001,2.1016,2.1021,2.1019,2.103,2.0986,2.0967,2.1007,2.1007,2.1007,2.1007,2.1007,2.1007,2.0012,2.0098,2.0136,2.025,2.0304,2.0389,2.0431,2.049,2.0547,2.0653,2.072,2.0767,2.084,2.093,2.1005,2.1025,2.1054,2.1055,2.1078,2.1036,2.1033,2.103,2.1012,2.1061,2.1061,2.1116,2.1117,2.1117]},{"header":{"parameterUnit":"m.s-1","parameterCategory":1,"la1":30.2991,"la2":30.254,"lo1":-89.0895,"lo2":-89.0444,"dy":0.0017,"dx":0.0017,"nx":28,"ny":28,"refTime":"2024-08-11T09:00:00:Z","depth":0,"parameterNumber":3,"parameterNumberName":"V-component_of_WINDS"},"data":[0,0,0,0,0,0,0,0,0,0,0,0,0,0,0,0,0,0,0,0,0,0,0,0,0,0,0,0,0,0,0,0,0,0,0,0,0,0,0,0,0,0,0,0,0,0,0,0,0,0,0,0,0,0,0,0,0,0,4.9985,4.9985,0,4.9993,4.9993,4.9993,4.9883,4.988,4.9877,4.9874,4.9882,4.9885,4.9888,0,0,0,0,0,0,0,0,0,0,0,0,0,4.9873,4.9876,4.9985,4.9985,4.9985,4.9993,4.9993,4.9993,4.9883,4.988,4.9876,4.9873,4.9881,4.9884,4.9888,0,0,0,0,0,0,0,0,0,0,0,0,0,4.9905,4.9877,4.9985,4.9932,4.9927,4.9993,4.9993,4.9993,4.9884,4.988,4.9875,4.9871,4.988,4.9884,4.9889,5.0006,0,0,4.9902,4.9904,0,0,0,0,0,0,0,0,4.9904,4.991,4.9939,4.9935,4.993,4.9932,4.9956,4.9997,4.9885,4.99,4.9874,4.9869,4.9902,4.9905,4.9916,5.0006,5.0007,4.9903,4.9905,4.9907,4.9909,0,0,0,0,0,0,0,4.9902,4.9909,4.9988,4.994,4.9934,4.9906,4.9906,4.9963,4.9926,4.9899,4.9891,4.9893,4.9899,4.9912,4.9915,5.0007,4.9903,4.9907,4.9909,4.9911,5.019,5.0195,0,0,0,0,0,0,4.9907,4.9908,4.9988,4.9988,4.9906,4.9912,4.9911,4.9936,4.9925,4.992,4.9897,4.9888,4.9906,4.991,4.9915,5.0049,4.9907,4.9912,4.9914,5.0185,5.0191,5.0196,0,0,0,0,0,0,4.9905,4.9915,4.9987,4.9946,4.9953,4.9919,4.9947,4.9939,4.9951,4.9924,4.9917,4.9917,4.9903,4.9909,4.9983,5.0048,4.9914,4.9918,5.018,5.0187,5.0194,5.0321,0,0,0,0,0,0,4.9902,4.9915,4.996,4.9948,4.9955,5.0057,4.9951,4.9942,4.9959,4.9948,4.9941,4.9936,4.99,4.9977,4.9988,5.0052,4.9921,5.0174,5.0183,5.0191,5.0311,5.0332,5.0349,0,0,0,0,0,4.9898,4.9997,4.9963,4.9974,5.0011,5.0061,5.0065,5.0022,4.9965,5.001,4.9991,4.9936,5.004,4.9986,4.9997,5.0064,5.017,5.0181,5.0191,5.0302,5.0328,5.0349,0,0,0,0,0,0,5.0019,4.9994,4.9957,5.0054,5.006,5.0042,5.0097,5.0051,5.0074,5.0062,5.0007,5.0006,5.0089,5.0084,5.0024,5.0175,5.0094,5.0108,5.0175,5.0199,5.0218,5.0217,4.9925,0,0,0,0,0,5.0057,5.01,5.0075,5.0164,5.0168,5.0133,5.0153,5.0118,5.0123,5.0125,5.0112,5.0119,5.0152,5.0175,5.0205,5.0309,5.0305,5.036,5.038,5.0395,5.0408,5.046,5.0483,5.0231,5.0231,5.0231,0,0,5.0136,5.0127,5.0158,5.0187,5.0188,5.0232,5.0136,5.0188,5.0219,5.0133,5.0202,5.0193,5.0196,5.0285,5.0324,5.0283,5.0476,5.0409,5.0422,5.0425,5.0473,5.0497,5.0518,5.0238,5.0237,5.0236,0,0,5.0302,5.0301,5.0372,5.0374,5.0376,5.0351,5.0368,5.0357,5.0347,5.0415,5.035,5.0387,5.0446,5.045,5.046,5.0623,5.0572,5.0635,5.0735,5.0786,5.0806,5.0824,5.088,5.0901,5.0647,5.0647,5.0647,0,5.04,5.0464,5.0415,5.047,5.0484,5.0406,5.0477,5.0481,5.0493,5.0504,5.0458,5.0529,5.0526,5.0613,5.0653,5.0664,5.0681,5.0635,5.0807,5.0824,5.084,5.0893,5.0914,5.0654,5.0654,5.0653,5.0652,0,5.0583,5.0628,5.0686,5.0697,5.0717,5.0781,5.074,5.0766,5.0729,5.0708,5.0777,5.077,5.0795,5.0814,5.0779,5.0896,5.087,5.0817,5.0735,5.0872,5.0921,5.0941,5.0665,5.0662,5.066,5.0658,0,0,5.0828,5.0808,5.083,5.0833,5.0828,5.0861,5.0919,5.0943,5.0966,5.0976,5.1022,5.1073,5.1022,5.1033,5.0998,5.1043,5.117,5.0984,5.0983,5.1017,5.1296,5.1336,5.136,5.1136,5.114,5.1143,5.1295,0,5.0987,5.1085,5.1041,5.1143,5.1183,5.1108,5.1158,5.116,5.1142,5.1172,5.1151,5.1187,5.1119,5.1125,5.1166,5.1146,5.1226,5.1135,5.1178,5.118,5.1179,5.1386,5.1429,5.1573,5.1314,5.1318,5.132,0,5.1187,5.1203,5.1309,5.1293,5.1308,5.1355,5.1371,5.1401,5.1401,5.1384,5.1395,5.1348,5.1403,5.1322,5.1395,5.1334,5.1349,5.1342,5.1346,5.1348,5.1258,5.1393,5.1618,5.1639,5.135,5.1348,5.1345,0,5.1352,5.14,5.1469,5.1474,5.1458,5.1491,5.1486,5.1481,5.1497,5.1512,5.1521,5.1542,5.1554,5.1571,5.1531,5.1475,5.1609,5.1525,5.1595,5.1597,5.1627,5.1625,5.1857,5.1638,5.1638,5.1638,5.1637,0,5.1534,5.1602,5.1542,5.1585,5.1657,5.1605,5.1678,5.1664,5.166,5.1697,5.1634,5.1671,5.1616,5.1647,5.1616,5.168,5.1686,5.1673,5.1664,5.1679,5.168,5.1687,5.1676,5.1643,5.1642,5.1641,5.164,0,5.1731,5.1694,5.1764,5.1742,5.1737,5.1792,5.1772,5.181,5.1786,5.1834,5.1842,5.1805,5.1838,5.1799,5.183,5.1808,5.1895,5.1872,5.1895,5.1888,5.196,5.1954,5.2204,5.2233,5.1997,5.2,5.2002,0,5.1849,5.1899,5.1881,5.1901,5.1899,5.1933,5.1948,5.1898,5.1916,5.1917,5.1954,5.1981,5.2,5.2056,5.2032,5.2054,5.2029,5.2115,5.2032,5.2044,5.2029,5.2026,5.203,5.2132,5.2135,5.2138,5.2139,0,5.2063,5.2041,5.2065,5.2082,5.2102,5.2113,5.212,5.214,5.2087,5.2111,5.2143,5.2157,5.2187,5.2214,5.2229,5.2222,5.2172,5.2166,5.2183,5.2198,5.2209,5.2202,5.194,5.216,5.2158,5.2157,5.2155,5.2155,5.2222,5.2262,5.2254,5.2282,5.2281,5.2288,5.2322,5.2301,5.2326,5.2345,5.2314,5.2354,5.2349,5.2363,5.2363,5.2393,5.2356,5.2381,5.2387,5.2394,5.2404,5.2205,5.2395,5.2395,5.2394,5.2394,5.2393,0,5.2431,5.2421,5.2448,5.2457,5.2479,5.2428,5.2432,5.2454,5.2489,5.2489,5.2508,5.2543,5.2569,5.2546,5.2566,5.2594,5.2572,5.2602,5.2598,5.2598,5.2437,5.2419,5.2619,5.2619,5.2619,5.2619,5.2619,5.2619,5.2541,5.2604,5.2581,5.2642,5.2632,5.267,5.2676,5.2682,5.268,5.2722,5.2743,5.2727,5.2717,5.2735,5.2756,5.2748,5.2759,5.2796,5.2781,5.2631,5.2609,5.2588,5.2571,5.2799,5.28,5.2938,5.294,5.2941]}]]